Home   Weather   Elbląg   Past weeks

Flag for Poland Past Weather in Elbląg, Poland — Yesterday and Last 2 Weeks

Now
38 °F

Low clouds.


Feels Like: 33 °F
Forecast: 34 / 36 °F
Wind: 7 mph from West

Location: Hel

Current Time: Jan 20, 2017 at 1:27:35 pm

Latest Report: Jan 20, 2017 at 12:00 pm


Visibility: 7 mi

Pressure: 30.37 "Hg

Humidity: 95%

Dew Point: 37 °F

Location of ElblągLocation

Past Weather in Elbląg — Graph

°F

Elbląg Temperature Yesterday

Maximum temperature yesterday: 36 °F (at 7:00 pm)
Minimum temperature yesterday: 33 °F (at 12:00 am)
Average temperature yesterday: 34 °F

High & Low Weather Summary for the Past Weeks

 TemperatureHumidityPressure
High38 °F (Jan 20, 11:00 am)98% (Jan 13, 9:00 pm)30.71 "Hg (Jan 13, 9:00 pm)
Low18 °F (Jan 11, 9:00 am)60% (Jan 6, 12:00 pm)29.15 "Hg (Jan 13, 4:00 pm)
Average30 °F87%30.12 "Hg
* Reported Jan 5 11:00 am — Jan 20 11:00 am, Elbląg, Weather by CustomWeather, © 2017

Note: Actual official high and low records may vary slightly from our data, if they occured in-between our weather recording intervals... More about our weather records

Advertising

Elbląg Weather History for the Previous 24 Hours

Scroll right to see more
 ConditionsComfort  
Time TempWeatherWind HumidityBarometerVisibility
11:00 am
Fri, Jan 20
38 °FLow clouds.6 mph95%30.39 "Hg9 mi
10:00 am38 °FOvercast.8 mph97%30.39 "Hg7 mi
9:00 am37 °FOvercast.8 mph98%30.40 "Hg6 mi
8:00 am37 °FDrizzle. Low clouds.8 mph98%30.39 "Hg3 mi
7:00 am37 °FFog.6 mph98%30.39 "Hg1 mi
6:00 am37 °FFog.6 mph98%30.39 "Hg1 mi
5:00 am37 °FFog.7 mph98%30.39 "Hg2 mi
4:00 am37 °FFog.5 mph98%30.40 "Hg1 mi
3:00 am36 °FFog.5 mph97%30.40 "Hg2 mi
2:00 am36 °FFog.7 mph97%30.41 "Hg2 mi
1:00 am36 °FFog.8 mph97%30.40 "Hg2 mi
12:00 am36 °FFog.7 mph97%30.41 "Hg2 mi
11:00 pm
Thu, Jan 19
35 °FFog.7 mph97%30.42 "Hg2 mi
10:00 pm35 °FFog.8 mph97%30.42 "Hg1 mi
9:00 pm35 °FFog.10 mph95%30.41 "Hg2 mi
8:00 pm35 °FFog.9 mph94%30.42 "Hg4 mi
7:00 pm36 °FFog.7 mph93%30.42 "Hg5 mi
6:00 pm35 °FFog.6 mph93%30.43 "Hg4 mi
5:00 pm35 °FFog.6 mph92%30.44 "Hg5 mi
4:00 pm35 °FFog.6 mph92%30.45 "Hg4 mi
3:00 pm35 °FFog.7 mph92%30.45 "Hg5 mi
2:00 pm35 °FFog.6 mph91%30.46 "Hg6 mi
1:00 pm34 °FFog.5 mph90%30.48 "Hg5 mi
Weather by CustomWeather, © 2017

See weather overviewHow to use our weather pages